Theta_e
297 294 289 289 290 290 291 289 288 292 289 287 290 291 293 296 296 293 296 299 299 298 299 294 292 291 290 290 289 289 289 289 289 289 288 288 288 289 290 290 291 290 290 289
296 288 289 290 290 289 289 288 290 290 288 288 289 288 293 291 293 296 294 297 298 298 297 293 292 291 290 290 289 289 288 288 288 288 288 288 288 288 289 289 289 289 289 289
291 287 289 287 289 288 288 286 286 284 287 289 287 292 293 290 290 291 293 296 298 298 297 294 292 291 291 289 289 288 288 288 288 288 288 288 288 288 287 287 287 288 288 288
288 288 287 288 287 287 285 287 285 284 284 286 287 287 293 291 290 289 291 293 295 297 297 296 294 291 290 290 289 288 288 288 288 288 286 285 284 283 285 286 287 287 287 287
286 287 287 287 284 286 287 287 285 285 283 283 286 284 293 290 290 290 291 292 293 294 295 294 293 292 291 290 288 288 288 288 288 287 286 285 284 284 284 285 284 285 286 286
288 289 288 286 286 286 288 285 285 285 286 286 279 282 288 293 291 291 291 291 291 293 293 293 293 291 289 289 288 288 288 287 287 286 285 284 283 282 282 282 282 283 284 284
288 287 287 286 286 288 288 288 287 287 286 287 277 280 287 292 293 291 290 290 290 291 291 291 290 289 288 288 288 288 287 286 285 284 284 283 282 282 281 281 281 280 281 282
288 292 287 286 284 283 284 284 286 279 282 283 275 281 289 290 289 289 289 289 289 289 290 290 290 289 288 287 287 287 286 283 283 283 282 282 282 281 281 280 280 280 280 281
286 287 285 284 285 284 284 287 283 284 272 277 285 288 292 289 288 288 288 288 289 289 290 289 289 287 286 286 286 283 282 282 282 281 281 280 280 280 279 279 280 280 280 280
284 284 284 283 285 284 284 284 286 286 280 280 285 285 286 291 289 287 288 288 288 288 286 287 286 284 284 284 282 282 282 280 280 280 279 279 279 279 279 279 278 278 278 278
284 285 286 282 283 287 283 284 282 282 281 280 279 285 290 289 286 287 287 286 284 283 282 283 282 282 281 281 281 280 280 279 278 278 278 277 277 277 278 277 277 277 277 277
286 282 282 290 283 284 284 284 284 282 283 280 277 280 288 285 285 285 286 286 284 281 279 279 280 280 279 279 278 278 278 277 277 277 276 276 276 276 275 275 275 275 275 275
286 284 284 289 283 282 280 283 282 281 280 279 279 285 285 284 284 285 283 284 280 278 278 277 277 277 277 277 276 276 276 275 276 275 275 274 274 273 273 273 273 273 272 272
285 283 284 285 288 284 282 281 282 282 281 282 281 284 287 288 287 286 284 279 277 276 275 276 276 276 275 275 274 274 274 274 274 273 272 272 272 271 271 271 271 270 270 269
285 281 280 281 282 282 280 280 281 278 280 279 283 282 285 286 285 282 277 278 277 275 275 275 274 274 274 273 273 273 273 272 272 271 270 270 270 270 269 269 268 268 267 267
284 281 276 277 281 279 277 279 281 279 280 279 280 278 285 284 280 281 280 277 276 274 274 274 274 273 272 272 271 271 271 270 271 269 268 268 268 268 267 266 265 266 265 265
282 281 278 279 276 275 278 281 281 281 281 280 277 285 282 284 284 281 278 275 274 273 273 273 273 272 272 272 271 270 269 270 269 267 267 267 266 265 264 264 264 263 264 265
278 278 279 278 278 282 293 286 285 283 284 283 283 283 285 284 279 277 276 275 274 273 273 273 273 271 272 272 269 269 269 268 267 266 266 266 264 263 263 262 262 263 264 263
282 281 279 277 276 284 287 280 281 280 282 288 285 284 284 279 277 276 275 275 274 274 274 275 275 273 272 270 270 269 268 268 266 266 265 264 263 262 262 261 262 263 263 263
278 279 279 274 276 281 290 281 282 281 281 284 282 280 281 278 278 280 275 275 274 274 274 273 273 273 272 271 271 269 268 267 266 265 265 264 263 262 261 262 263 263 263 263
275 276 275 276 276 281 288 281 282 283 286 281 282 282 280 278 278 275 275 274 274 273 272 273 272 271 271 270 269 268 267 266 266 266 265 264 263 262 263 263 263 263 263 264
280 276 275 277 274 277 282 279 285 291 283 282 281 281 278 276 274 274 273 273 272 271 271 271 270 269 270 269 268 266 265 266 265 264 263 262 262 263 264 263 263 263 264 263
279 286 285 282 283 290 284 289 286 283 282 281 280 279 277 275 274 273 272 272 271 270 270 270 268 268 268 268 267 264 265 264 263 261 260 262 263 263 263 263 263 263 263 263
279 280 280 283 288 289 291 292 289 285 282 280 279 278 277 275 274 272 272 271 270 269 269 268 266 266 265 266 265 264 264 263 261 260 261 262 263 263 263 263 264 263 262 262
283 281 283 285 289 290 290 291 290 282 279 277 277 276 276 274 272 272 271 270 269 268 268 267 266 265 264 264 263 263 262 261 260 260 261 262 262 262 262 263 263 263 263 264
281 287 286 289 298 293 291 283 281 278 277 276 274 273 274 274 272 271 270 269 268 267 267 266 265 264 263 263 262 262 262 261 259 259 261 261 261 261 262 261 261 265 266 267
Wind_Speed
8 11 10 8 7 4 5 7 10 7 4 9 11 22 21 16 17 14 15 14 14 13 10 8 8 5 5 5 5 4 5 7 7 7 7 7 8 9 8 8 9 12 11 13
6 8 6 4 4 5 5 7 7 8 1 9 14 26 19 3 10 12 14 14 13 12 12 11 10 10 8 6 5 5 5 6 6 5 7 7 8 9 9 9 10 12 12 12
8 3 3 3 5 8 1 3 6 8 13 3 14 11 5 4 3 4 9 11 12 14 13 13 12 11 8 8 6 5 5 5 6 7 7 8 9 9 9 10 9 9 12 13
7 1 2 3 3 6 4 4 7 10 8 5 5 7 8 3 3 5 8 11 11 12 10 11 11 11 10 9 4 5 5 6 7 9 9 11 10 11 10 10 9 11 12 14
2 4 5 3 2 2 4 7 7 5 4 6 2 3 6 2 3 3 4 8 10 10 10 11 12 10 9 5 5 5 6 7 8 9 10 10 12 10 10 10 15 12 12 12
3 0 2 4 4 4 9 5 4 2 2 3 3 5 9 2 1 1 1 1 4 4 8 10 8 7 5 5 6 6 7 9 10 10 11 13 15 15 12 13 12 10 9 10
1 1 2 2 5 4 6 3 4 3 2 4 2 6 13 7 4 3 4 4 4 3 7 8 8 8 7 7 6 7 8 11 12 13 13 14 15 16 16 16 11 15 10 10
4 3 1 3 3 3 4 2 2 6 6 9 4 8 5 2 1 2 4 3 3 4 3 6 6 5 6 6 7 8 9 11 13 14 15 14 15 10 11 13 13 11 12 12
4 3 3 3 2 2 3 2 4 3 2 2 4 6 13 4 3 2 0 2 3 4 6 7 7 4 6 7 8 9 11 12 13 14 14 15 15 16 14 17 15 11 15 13
5 8 3 2 2 3 2 3 1 1 7 9 5 5 9 2 3 3 3 2 3 8 10 9 6 7 6 6 7 10 11 13 14 15 14 13 15 16 16 15 17 17 16 17
2 2 2 1 4 4 3 2 1 2 2 5 9 5 4 5 2 3 3 2 4 6 8 7 6 5 6 7 9 11 11 14 14 14 15 15 15 16 16 15 16 17 18 17
3 2 6 6 3 1 2 3 4 3 2 4 4 13 3 3 3 2 4 2 6 6 5 5 4 6 8 9 10 11 13 13 14 14 15 16 17 18 17 17 18 18 18 18
2 2 6 4 2 3 4 5 4 1 3 9 6 10 1 3 2 3 4 5 6 5 4 4 6 7 8 9 11 11 12 13 14 15 15 17 17 17 18 19 18 18 19 19
1 3 6 8 8 2 9 7 8 6 5 7 17 26 22 14 4 7 3 4 4 4 3 3 4 5 7 7 9 10 11 13 14 15 15 17 17 18 18 19 19 19 18 19
2 5 5 13 16 11 19 17 11 15 18 11 24 17 27 20 17 6 1 1 3 3 3 4 5 6 6 7 7 8 9 11 13 13 12 15 16 18 18 19 19 19 19 18
3 3 3 10 9 9 13 15 13 17 21 21 28 34 22 7 2 2 1 2 2 1 3 4 5 6 6 6 7 9 8 10 10 11 12 12 13 14 16 17 19 18 18 18
2 2 1 6 4 11 11 12 12 7 8 7 10 12 2 2 2 3 1 3 3 2 4 5 6 5 6 6 6 8 9 9 9 11 11 12 12 15 14 15 16 15 17 17
6 3 2 7 6 4 6 1 3 10 13 15 17 17 6 2 2 2 3 4 2 2 4 5 4 4 6 6 5 6 8 8 9 10 11 12 13 14 14 14 14 14 14 15
4 2 3 5 4 14 12 5 2 2 8 13 14 10 2 1 2 5 6 4 2 1 2 2 1 3 5 5 5 6 8 8 10 10 12 12 13 14 14 14 15 14 14 14
3 2 3 2 5 9 6 6 4 4 8 3 1 2 3 1 11 4 8 4 2 3 4 6 7 9 10 12 13 13 11 11 12 12 13 13 13 13 14 14 14 14 13 14
5 4 7 8 8 13 12 9 4 1 4 4 2 3 4 7 3 7 6 5 3 2 4 6 8 8 10 11 12 13 13 12 14 15 14 13 12 13 13 13 12 13 13 13
10 10 7 4 6 14 9 8 8 1 3 1 2 5 6 4 6 6 5 3 2 3 4 5 7 9 10 10 11 13 13 14 14 15 14 14 13 12 11 13 12 13 13 13
5 9 8 15 14 2 14 13 3 3 3 3 3 6 8 10 8 7 5 3 3 2 4 5 7 9 10 10 10 12 13 14 13 13 13 13 13 13 13 12 13 11 12 11
7 5 6 2 15 22 18 16 12 10 7 5 5 9 11 10 10 7 5 3 2 2 3 5 7 8 10 10 10 10 11 11 12 13 14 13 12 12 11 10 9 9 10 11
6 11 7 13 25 22 23 16 9 5 6 7 7 9 9 11 9 7 5 4 1 2 3 4 6 7 9 9 9 8 10 10 12 13 12 12 10 12 12 10 10 10 11 13
9 12 10 16 25 7 7 3 4 9 10 11 12 10 8 8 9 7 5 3 2 3 4 5 7 8 9 9 10 9 9 11 11 13 10 10 10 10 10 11 12 16 21 24
Wind_Direction
32 65 51 23 19 348 335 326 315 303 43 319 282 288 288 279 256 236 250 239 229 231 228 212 218 219 232 240 266 299 325 343 347 344 339 335 330 323 315 318 312 324 321 325
70 57 18 337 345 342 331 310 327 295 138 326 307 294 289 333 275 257 241 244 235 233 220 216 223 220 226 249 255 274 304 331 336 336 328 316 314 313 311 308 321 319 318 316
67 50 323 318 18 350 14 327 342 306 320 257 299 277 194 172 268 268 254 251 238 230 229 224 222 230 231 239 252 277 305 315 318 329 319 320 314 310 313 320 312 314 312 307
67 51 311 327 68 349 306 30 324 303 326 300 1 290 294 153 275 218 234 235 243 240 232 241 231 229 232 239 237 261 294 307 317 328 321 321 312 311 317 308 308 308 303 303
44 2 1 13 326 316 325 331 310 315 269 315 141 276 285 192 171 193 219 232 240 239 238 230 239 246 242 247 259 284 302 314 321 321 319 316 311 311 312 306 307 308 300 306
90 173 340 328 296 251 315 303 268 257 242 269 72 354 284 249 66 136 147 312 328 268 249 245 245 246 238 241 251 278 308 315 321 322 317 316 317 315 313 309 309 306 308 305
240 166 100 332 294 195 301 311 329 325 289 279 124 272 258 292 296 292 332 1 6 323 242 246 243 239 242 258 273 301 317 319 326 325 325 324 318 316 312 316 312 313 307 304
357 295 44 359 18 328 342 334 351 308 306 314 156 234 258 76 21 283 269 296 330 309 280 264 276 298 296 318 315 319 330 326 330 330 327 322 321 317 316 313 313 307 305 304
334 260 121 37 349 338 10 347 14 288 90 275 242 265 266 47 317 279 311 339 360 8 354 341 343 336 351 339 348 340 334 336 333 330 326 325 325 321 316 315 309 306 308 306
28 299 54 54 311 67 310 10 309 128 317 305 235 266 258 290 264 18 25 347 13 6 9 359 22 24 356 2 347 347 344 336 333 332 331 326 322 320 315 311 311 312 313 312
122 136 311 188 196 171 169 204 187 291 258 276 304 270 179 202 154 143 268 270 32 13 7 27 28 18 11 2 356 347 341 338 336 335 330 325 322 319 319 317 318 319 315 313
72 319 269 245 123 348 266 258 223 246 198 251 296 272 41 129 128 147 299 330 0 24 37 33 35 18 7 3 352 343 346 340 339 333 331 326 325 326 323 321 323 321 320 319
131 250 303 267 192 167 221 198 191 115 256 228 261 260 246 102 156 231 280 349 18 41 55 44 26 13 3 358 345 350 342 338 334 334 330 329 328 328 326 326 326 324 327 319
293 274 232 256 272 27 260 202 207 207 254 268 235 275 278 289 358 347 28 47 55 61 60 29 25 14 356 349 340 339 335 339 336 331 332 330 331 331 330 328 328 325 323 323
218 261 287 264 273 278 267 265 220 211 235 246 276 279 282 301 318 345 352 59 86 90 38 14 356 355 343 337 328 327 328 330 328 330 328 326 327 329 327 329 326 325 325 323
160 268 343 296 310 293 280 275 243 237 256 258 264 276 279 301 148 230 1 36 71 36 347 345 353 344 329 324 326 318 318 322 325 322 321 321 326 322 328 324 323 327 324 325
192 242 273 264 337 326 280 248 195 203 209 204 231 258 117 266 319 342 71 178 168 287 336 342 342 330 318 312 309 313 317 318 319 321 319 325 321 325 323 320 320 320 321 320
154 175 205 281 303 259 235 214 222 223 259 221 264 274 321 331 241 201 193 165 198 344 337 339 316 302 301 296 289 301 315 316 319 315 324 324 326 320 318 318 317 317 319 321
238 191 231 277 261 282 275 138 137 268 271 266 241 263 238 98 252 196 177 166 136 17 346 329 311 284 299 312 323 318 320 329 318 328 325 328 325 319 319 317 316 320 320 319
134 338 251 164 261 284 358 150 137 151 275 85 66 357 316 145 300 347 155 156 111 33 13 351 341 332 333 339 337 331 330 330 332 330 330 327 322 320 315 313 318 320 313 310
158 173 220 218 256 275 278 146 153 204 315 148 189 281 218 265 307 112 140 128 100 50 13 350 341 336 338 338 337 329 330 330 330 329 328 323 325 317 312 315 318 312 313 310
178 164 202 185 232 274 136 123 213 324 130 215 141 239 223 159 148 159 148 145 111 48 6 354 335 335 337 345 337 326 327 333 329 328 322 320 316 314 315 319 314 314 313 312
259 199 192 188 220 179 189 248 199 160 195 235 194 163 171 170 173 175 167 139 96 42 355 349 337 329 338 345 337 325 326 329 327 319 314 314 311 314 322 316 315 314 317 315
239 170 241 19 234 256 271 270 240 214 213 163 165 159 171 165 158 161 153 147 126 50 353 343 335 330 330 337 330 322 322 328 321 314 316 312 317 320 316 314 309 312 311 314
186 149 205 255 278 274 260 269 275 156 126 129 137 148 154 147 154 152 150 152 133 21 1 345 327 323 322 325 322 323 326 324 319 316 313 317 319 318 314 311 312 309 307 305
188 209 215 245 264 252 276 192 144 161 169 156 151 136 132 142 144 146 151 136 79 3 345 339 332 323 321 324 321 324 329 324 318 315 319 318 318 312 313 313 313 310 314 319